TimeMST,TemperatureF,Dew PointF,Humidity,Sea Level PressureIn,VisibilityMPH,Wind Direction,Wind SpeedMPH,Gust SpeedMPH,PrecipitationIn,Events,Conditions,WindDirDegrees,DateUTC
12:16 AM,32.0,17.6,55,30.42,10.0,West,23.0,28.8,N/A,,Clear,260,2012-11-04 06:16:00
12:36 AM,32.0,17.6,55,30.42,10.0,West,21.9,-,N/A,,Clear,260,2012-11-04 06:36:00
12:56 AM,32.0,17.6,55,30.42,10.0,West,23.0,-,N/A,,Clear,270,2012-11-04 06:56:00
1:16 AM,32.0,17.6,55,30.42,10.0,West,20.7,-,N/A,,Clear,260,2012-11-04 07:16:00
1:36 AM,30.2,14.0,51,30.41,10.0,West,23.0,-,N/A,,Clear,260,2012-11-04 07:36:00
1:56 AM,32.0,14.0,48,30.42,10.0,West,18.4,-,N/A,,Clear,260,2012-11-04 07:56:00
1:16 AM,32.0,14.0,48,30.42,10.0,West,20.7,-,N/A,,Clear,260,2012-11-04 08:16:00
1:36 AM,30.2,14.0,51,30.42,10.0,West,16.1,-,N/A,,Clear,270,2012-11-04 08:36:00
1:56 AM,28.4,14.0,55,30.42,10.0,West,16.1,-,N/A,,Clear,270,2012-11-04 08:56:00
2:16 AM,28.4,14.0,55,30.42,10.0,West,18.4,-,N/A,,Clear,270,2012-11-04 09:16:00
2:36 AM,28.4,15.8,59,30.42,10.0,West,18.4,-,N/A,,Clear,270,2012-11-04 09:36:00
2:56 AM,30.2,15.8,55,30.42,10.0,West,17.3,-,N/A,,Clear,270,2012-11-04 09:56:00
3:16 AM,30.2,14.0,51,30.42,10.0,West,17.3,-,N/A,,Clear,280,2012-11-04 10:16:00
3:36 AM,28.4,14.0,55,30.42,10.0,West,16.1,-,N/A,,Clear,270,2012-11-04 10:36:00
3:56 AM,30.2,14.0,51,30.42,10.0,West,21.9,-,N/A,,Clear,260,2012-11-04 10:56:00
4:16 AM,28.4,14.0,55,30.43,10.0,West,17.3,-,N/A,,Clear,260,2012-11-04 11:16:00
4:36 AM,28.4,14.0,55,30.44,10.0,West,18.4,-,N/A,,Clear,260,2012-11-04 11:36:00
4:56 AM,28.4,12.2,51,30.43,10.0,West,18.4,-,N/A,,Clear,260,2012-11-04 11:56:00
5:16 AM,28.4,12.2,51,30.44,10.0,West,20.7,-,N/A,,Clear,270,2012-11-04 12:16:00
5:36 AM,28.4,14.0,55,30.44,10.0,West,18.4,-,N/A,,Clear,260,2012-11-04 12:36:00
5:56 AM,28.4,12.2,51,30.44,10.0,West,16.1,23.0,N/A,,Clear,260,2012-11-04 12:56:00
6:16 AM,28.4,12.2,51,30.44,10.0,West,20.7,-,N/A,,Scattered Clouds,260,2012-11-04 13:16:00
6:36 AM,28.4,12.2,51,30.44,10.0,West,18.4,24.2,N/A,,Scattered Clouds,260,2012-11-04 13:36:00
6:56 AM,28.4,14.0,55,30.44,10.0,West,18.4,24.2,N/A,,Clear,260,2012-11-04 13:56:00
7:16 AM,30.2,15.8,55,30.44,10.0,West,17.3,25.3,N/A,,Clear,260,2012-11-04 14:16:00
7:36 AM,28.4,15.8,59,30.45,10.0,West,12.7,20.7,N/A,,Clear,260,2012-11-04 14:36:00
7:56 AM,30.2,15.8,55,30.46,10.0,West,10.4,-,N/A,,Scattered Clouds,270,2012-11-04 14:56:00
8:16 AM,30.2,15.8,55,30.46,10.0,West,15.0,18.4,N/A,,Scattered Clouds,270,2012-11-04 15:16:00
8:36 AM,30.2,15.8,55,30.47,10.0,West,16.1,-,N/A,,Clear,270,2012-11-04 15:36:00
8:56 AM,32.0,17.6,55,30.48,10.0,West,17.3,-,N/A,,Scattered Clouds,260,2012-11-04 15:56:00
9:16 AM,32.0,17.6,55,30.48,10.0,West,13.8,19.6,N/A,,Scattered Clouds,260,2012-11-04 16:16:00
9:36 AM,33.8,19.4,56,30.48,10.0,West,15.0,-,N/A,,Clear,280,2012-11-04 16:36:00
9:56 AM,33.8,17.6,52,30.49,10.0,West,19.6,23.0,N/A,,Clear,270,2012-11-04 16:56:00
10:16 AM,33.8,17.6,52,30.49,10.0,West,19.6,-,N/A,,Clear,270,2012-11-04 17:16:00
10:36 AM,33.8,17.6,52,30.49,7.0,West,17.3,21.9,N/A,,Clear,270,2012-11-04 17:36:00
10:56 AM,33.8,19.4,56,30.49,5.0,West,19.6,25.3,N/A,,Haze,270,2012-11-04 17:56:00
11:16 AM,33.8,17.6,52,30.49,7.0,West,17.3,25.3,N/A,,Clear,270,2012-11-04 18:16:00
11:36 AM,33.8,17.6,52,30.48,10.0,West,25.3,28.8,N/A,,Clear,270,2012-11-04 18:36:00
11:56 AM,33.8,17.6,52,30.47,10.0,West,18.4,29.9,N/A,,Clear,270,2012-11-04 18:56:00
12:16 PM,35.6,19.4,52,30.48,10.0,West,13.8,28.8,N/A,,Clear,270,2012-11-04 19:16:00
12:36 PM,37.4,19.4,48,30.47,7.0,West,17.3,27.6,N/A,,Clear,280,2012-11-04 19:36:00
12:56 PM,35.6,17.6,48,30.47,7.0,West,19.6,29.9,N/A,,Clear,270,2012-11-04 19:56:00
1:16 PM,35.6,17.6,48,30.47,7.0,West,19.6,27.6,N/A,,Clear,280,2012-11-04 20:16:00
1:36 PM,35.6,19.4,52,30.48,4.0,West,23.0,39.1,N/A,,Haze,270,2012-11-04 20:36:00
1:56 PM,35.6,19.4,52,30.47,4.0,West,23.0,26.5,N/A,,Haze,280,2012-11-04 20:56:00
2:16 PM,37.4,21.2,52,30.47,7.0,West,19.6,28.8,N/A,,Clear,260,2012-11-04 21:16:00
2:36 PM,35.6,19.4,52,30.46,4.0,West,23.0,32.2,N/A,,Haze,280,2012-11-04 21:36:00
2:56 PM,35.6,21.2,56,30.47,4.0,West,21.9,32.2,N/A,,Haze,280,2012-11-04 21:56:00
3:16 PM,35.6,21.2,56,30.48,4.0,West,26.5,36.8,N/A,,Haze,260,2012-11-04 22:16:00
3:36 PM,33.8,21.2,60,30.48,4.0,West,26.5,36.8,N/A,,Haze,270,2012-11-04 22:36:00
3:56 PM,33.8,21.2,60,30.48,3.0,West,26.5,35.7,N/A,,Haze,280,2012-11-04 22:56:00
4:16 PM,33.8,21.2,60,30.49,4.0,West,16.1,27.6,N/A,,Haze,280,2012-11-04 23:16:00
4:36 PM,33.8,21.2,60,30.49,7.0,West,21.9,27.6,N/A,,Scattered Clouds,270,2012-11-04 23:36:00
4:56 PM,33.8,21.2,60,30.50,4.0,West,23.0,29.9,N/A,,Haze,260,2012-11-04 23:56:00
5:16 PM,33.8,21.2,60,30.50,4.0,West,25.3,32.2,N/A,,Haze,280,2012-11-05 00:16:00
5:36 PM,33.8,23.0,65,30.51,7.0,West,16.1,28.8,N/A,,Clear,280,2012-11-05 00:36:00
5:56 PM,33.8,23.0,65,30.52,7.0,West,11.5,25.3,N/A,,Mostly Cloudy,260,2012-11-05 00:56:00
6:16 PM,33.8,23.0,65,30.53,10.0,West,11.5,16.1,N/A,,Mostly Cloudy,260,2012-11-05 01:16:00
6:36 PM,33.8,23.0,65,30.53,10.0,West,13.8,19.6,N/A,,Mostly Cloudy,260,2012-11-05 01:36:00
6:56 PM,33.8,23.0,65,30.53,10.0,West,17.3,20.7,N/A,,Mostly Cloudy,270,2012-11-05 01:56:00
7:16 PM,32.0,21.2,64,30.53,5.0,West,17.3,23.0,N/A,,Haze,270,2012-11-05 02:16:00
7:36 PM,32.0,21.2,64,30.53,5.0,West,20.7,26.5,N/A,,Haze,280,2012-11-05 02:36:00
7:56 PM,32.0,21.2,64,30.53,4.0,West,24.2,27.6,N/A,,Haze,270,2012-11-05 02:56:00
8:16 PM,32.0,23.0,69,30.53,3.0,West,24.2,-,N/A,,Haze,270,2012-11-05 03:16:00
8:36 PM,32.0,23.0,69,30.53,3.0,West,20.7,-,N/A,,Haze,270,2012-11-05 03:36:00
8:56 PM,32.0,23.0,69,30.54,3.0,West,20.7,-,N/A,,Haze,270,2012-11-05 03:56:00
9:16 PM,32.0,23.0,69,30.54,3.0,West,24.2,31.1,N/A,,Haze,280,2012-11-05 04:16:00
9:36 PM,32.0,24.8,75,30.54,2.0,West,24.2,-,N/A,,Haze,270,2012-11-05 04:36:00
9:56 PM,32.0,24.8,75,30.54,2.5,West,23.0,29.9,N/A,,Haze,270,2012-11-05 04:56:00
10:16 PM,32.0,23.0,69,30.53,4.0,West,27.6,33.4,N/A,,Haze,280,2012-11-05 05:16:00
10:36 PM,32.0,24.8,75,30.53,2.0,West,21.9,-,N/A,,Haze,280,2012-11-05 05:36:00
10:56 PM,32.0,24.8,75,30.53,2.5,West,21.9,-,N/A,,Haze,270,2012-11-05 05:56:00